Flag for U.S.A. Weather past 2 weeks in Seattle, Washington, U.S.A.

Now
60 °F

Clear.


Feels Like: 60 °F
Forecast: 58 / 82 °F
Wind: No wind

Location: Seattle Boeing Field

Current Time: Sep 21, 2014 at 5:17:06 AM

Latest Report: Sep 21, 2014 at 4:53 AM


Visibility: 10 mi

Pressure: 29.85 "Hg

Humidity: 80%

Dew point: 54 °F

Location of SeattleLocation

Historic Weather in Seattle — Graph

°F

Seattle temperature yesterday

Maximum temperature yesterday: 74 °F (at 3:53 PM)
Minimum temperature yesterday: 60 °F (at 5:53 AM)
Average temperature yesterday: 67 °F

Past Weeks' High & Low Weather Summary

 TemperatureHumidityPressure
High87 °F (Sep 6, 4:53 PM)87% (Sep 10, 5:53 AM)30.30 "Hg (Sep 10, 5:53 AM)
Low52 °F (Sep 14, 6:53 AM)17% (Sep 11, 4:53 PM)29.70 "Hg (Sep 17, 3:53 PM)
Average67 °F56%29.95 "Hg
* Reported Sep 6 3:53 AM — Sep 21 3:53 AM, Seattle, Weather by CustomWeather, © 2014

Note: Actual official high and low records may vary slightly from our data, if they occured in-between our weather recording intervals... More about our weather records

Advertising

Seattle weather history for previous 24 hours

 ConditionsComfort  
Time TempWeatherWind HumidityBarometerVisibility
3:53 AM
Sep 21
60 °FClear.No wind80%29.85 "Hg10 mi
2:53 AM62 °FClear.No wind75%29.86 "Hg10 mi
1:53 AM62 °FClear.No wind75%29.87 "Hg10 mi
12:53 AM63 °FClear.No wind75%29.87 "Hg10 mi
11:53 PM
Sep 20
65 °FClear.No wind70%29.88 "Hg10 mi
10:53 PM65 °FClear.5 mph70%29.88 "Hg10 mi
9:53 PM66 °FClear.5 mph68%29.89 "Hg10 mi
8:53 PM67 °FClear.3 mph66%29.89 "Hg10 mi
7:53 PM69 °FSunny.5 mph61%29.90 "Hg10 mi
6:53 PM71 °FSunny.5 mph57%29.90 "Hg10 mi
5:53 PM72 °FSunny.7 mph55%29.92 "Hg10 mi
4:53 PM73 °FSunny.8 mph53%29.94 "Hg10 mi
3:53 PM74 °FSunny.9 mph53%29.95 "Hg10 mi
2:53 PM72 °FSunny.12 mph57%29.98 "Hg10 mi
1:53 PM73 °FSunny.8 mph55%30.01 "Hg10 mi
12:53 PM71 °FSunny.6 mph59%30.04 "Hg10 mi
11:53 AM68 °FScattered clouds.5 mph65%30.07 "Hg10 mi
10:53 AM64 °FPartly sunny.6 mph73%30.10 "Hg10 mi
5:53 AM60 °FClear.No wind80%30.09 "Hg10 mi
Weather by CustomWeather, © 2014

See weather overviewHow to use our weather pages